Regional Weather Roundup
Issued by NWS Newport/Morehead, NC

Current Version | Previous Version | Text Only | Print | Product List | Glossary On
Versions: 1 2 3 4 5 6 7 8 9 10 11 12 13 14 15 16 17 18 19 20 21 22 23 24 25 26 27 28 29 30 31 32 33 34 35 36 37 38 39 40 41 42 43 44 45 46 47 48 49 50
910
ASUS42 KMHX 201614
RWRMHX
WEATHER ROUNDUP FOR EASTERN NORTH CAROLINA
NATIONAL WEATHER SERVICE NEWPORT/MOREHEAD CITY NC
1200 PM EDT WED SEP 20 2017

NOTE: "FAIR" INDICATES FEW OR NO CLOUDS BELOW 12,000 FEET
WITH NO SIGNIFICANT WEATHER AND/OR OBSTRUCTIONS TO VISIBILITY

NCZ015>017-031-032-045>047-102-103-201700-
NORTH COAST

CITY           SKY/WX    TMP DP  RH WIND       PRES   REMARKS
EDENTON        SUNNY     84  67  57 CALM      29.99S
ELIZABETH CITY SUNNY     83  67  58 NW14      29.97F
KITTY HAWK     MOSUNNY   76  66  71 W5        29.95F
MANTEO         SUNNY     78  67  68 NW7       29.97F

$$

NCZ045>047-081-094-103-104-201700-
CENTRAL COAST

CITY           SKY/WX    TMP DP  RH WIND       PRES   REMARKS
FRISCO         SUNNY     82  70  66 W8        29.97F

$$

NCZ095-097-098-100-101-201700-
SOUTHERN COAST

CITY           SKY/WX    TMP DP  RH WIND       PRES   REMARKS
BEAUFORT       SUNNY     84  69  60 NW9       30.00S
CEDAR ISLAND   NOT AVBL
JACKSONVILLE   MOSUNNY   85  70  60 W9        30.00F
PINEY ISLAND     N/A    N/A N/A N/A W12       29.99S
WILMINGTON     SUNNY     86  66  51 NW10      30.02F


$$

NCZ011>013-027>030-043-044-078>080-089-090>093-098-201700-
COASTAL PLAIN

CITY           SKY/WX    TMP DP  RH WIND       PRES   REMARKS
AHOSKIE          N/A     80  67  64 CALM      29.99F
CLINTON        SUNNY     84  70  61 W7        30.02F
ELIZABETHTOWN  NOT AVBL
GOLDSBORO      SUNNY     84  71  65 W8        29.99F
GREENVILLE     SUNNY     82  68  61 W7        30.01F
HAVELOCK       SUNNY     85  69  58 W13       30.01S
KENANSVILLE    SUNNY     84  68  58 W9        30.02F
KINSTON        SUNNY     86  68  54 SW8       30.01F
NEW BERN       SUNNY     85  68  56 NW10      30.01F
RICHLANDS      SUNNY     86  69  56 VRB7      30.01F
ROCKY MOUNT    SUNNY     85  71  63 VRB5      30.00F
WASHINGTON     SUNNY     84  68  58 NW9       30.00F
WHITEVILLE     SUNNY     84  68  58 CALM      30.03S

$$

AMZ130-135-150-152-154-156-158-170-250-252-270-ANZ085-086-088-633-658-670-201700-
MARINE OBSERVATIONS

STATION/POSITION TIME  TEMP    WIND        PRES    WAVE   SWELL
                       AIR SEA DIR/SP/G            HT/PER HT/PER
                 (UTC) (F)     (DEG/KT/KT) (MB)    (FT/S) (FT/S)
CHESAPEAKE LIGHT NOT AVBL
64 E VA BEACH    1550   70 69  290/ 12/ 14 1013.7   10/11  10/11
DUCK             1542   78 74  290/ 10/ 14 1014.0
2 E DUCK         1600      75                N/A     5/11   3/11
OREGON INLET     1542   78 73  300/ 11/ 14 1014.4
13E OREGON INLT  1548      74                N/A     7/11   7/11
HATTERAS CG      1542   76 75  290/ 11/ 12 1015.1
DIAMOND BUOY     1550   75 74  290/ 12/ 14 1014.8    6/11   5/11
CAPE LOOKOUT     1600   81     260/  8/ 10 1015.5
BEAUFORT LAB     1542   82 74  300/  6/  9 1015.3
30 SE NEW RVR IN 1508   78     290/  8/ 10 1016.2
30 SE NEW RVR IN NOT AVBL
27 SE WRIGHTSVLE 1508   78 80  280/  8/ 12 1016.7
5 SE WRIGHTSVLE  1508   79 78  310/  8/ 10 1016.6
225 S CAPE HAT   1550   80 80  290/  4/  6 1017.1    8/11   8/11
41 SE CHARLESTON 1550   80 82  280/  6/  8 1017.1    4/12   3/12

$$




USA.gov is the U.S. government's official web portal to all federal, state and local government web resources and services.